Weather History for Rifle, CO

Change the Weather History Date:

Sunday, June 12, 2011

  Actual Average Record
Temperature  
Mean Temperature 65 °F 65 °F  
Max Temperature 86 °F 84 °F 96 °F (1956)
Min Temperature 46 °F 46 °F 34 °F (1925)
Degree Days  
Heating Degree Days 0 2  
Month to date heating degree days 42  
Since 1 June heating degree days 42  
Since 1 July heating degree days 6608  
Cooling Degree Days 0 3  
Month to date cooling degree days 21  
Year to date cooling degree days 28  
Since 1 June cooling degree days 21  
Growing Degree Days 15 (Base 50)    
Moisture  
Dew Point 22 °F    
Average Humidity 23    
Maximum Humidity 50    
Minimum Humidity 6    
Precipitation  
Precipitation 0.00 in 0.05 in 1.02 in (1983)
Month to date precipitation 0.49  
Year to date precipitation 5.91  
Sea Level Pressure  
Sea Level Pressure 29.77 in    
Wind  
Wind Speed 6 mph (WSW)    
Max Wind Speed 23 mph    
Max Gust Speed 33 mph    
Visibility 10 miles    
Events      
T = Trace of Precipitation, MM = Missing Value Source: NWS Daily Summary

Daily Weather History Graph

Daily Weather History Graph

Search for Another Location

Airport:

Trip Planner

Search our weather history database for the weather conditions in past years. The results will help you decide how hot, cold, wet, or windy it might be!

Date:

Astronomy

Jun. 12, 2011 Rise Set
Actual Time 5:43 AM MDT 8:38 PM MDT
Civil Twilight 5:10 AM MDT 9:11 PM MDT
Nautical Twilight 4:29 AM MDT 9:51 PM MDT
Astronomical Twilight 3:42 AM MDT 10:39 PM MDT
Moon 5:36 PM MDT (6/12) 2:56 AM MDT (6/12)
Length of Visible Light 16h 00m
Length of Day
14h 55m
Waxing Gibbous, 88% of the Moon is Illuminated
Jun 12
Waxing Gibbous
Jun 15
Full
Jun 23
Last Quarter
Jul 1
New
Jul 8
First Quarter

Hourly Weather History & Observations

Time (MDT) Temp. Dew Point Humidity Pressure Visibility Wind Dir Wind Speed Gust Speed Precip Events Conditions
12:53 AM 55.0 °F 28.0 °F 35% 29.70 in 10.0 mi SE 4.6 mph - N/A   Clear
1:53 AM 53.1 °F 32.0 °F 45% 29.72 in 10.0 mi Calm Calm - N/A   Clear
2:53 AM 51.1 °F 27.0 °F 39% 29.71 in 10.0 mi ESE 4.6 mph - N/A   Clear
3:53 AM 48.0 °F 28.0 °F 46% 29.72 in 10.0 mi Calm Calm - N/A   Clear
4:53 AM 48.0 °F 28.0 °F 46% 29.74 in 10.0 mi Calm Calm - N/A   Clear
5:53 AM 46.9 °F 28.9 °F 50% 29.78 in 10.0 mi Calm Calm - N/A   Clear
6:53 AM 48.9 °F 30.0 °F 48% 29.80 in 10.0 mi Calm Calm - N/A   Clear
7:53 AM 54.0 °F 30.9 °F 41% 29.81 in 10.0 mi Calm Calm - N/A   Clear
8:53 AM 60.1 °F 30.9 °F 33% 29.80 in 10.0 mi Calm Calm - N/A   Clear
9:53 AM 66.9 °F 30.0 °F 25% 29.78 in 10.0 mi Calm Calm - N/A   Clear
10:53 AM 73.0 °F 24.1 °F 16% 29.77 in 10.0 mi NW 5.8 mph - N/A   Clear
11:53 AM 79.0 °F 23.0 °F 13% 29.76 in 10.0 mi West 16.1 mph - N/A   Clear
12:53 PM 81.0 °F 19.0 °F 10% 29.75 in 10.0 mi West 18.4 mph 28.8 mph N/A   Clear
1:39 PM 82.4 °F 12.2 °F 7% 29.93 in 10.0 mi Variable 4.6 mph 24.2 mph N/A   Clear
1:48 PM 84.2 °F 12.2 °F 7% 29.94 in 10.0 mi WSW 21.9 mph 33.4 mph N/A   Squalls
1:53 PM 82.9 °F 12.0 °F 7% 29.74 in 10.0 mi WSW 23.0 mph 33.4 mph N/A   Clear
2:53 PM 84.0 °F 10.9 °F 6% 29.73 in 10.0 mi West 12.7 mph 20.7 mph N/A   Clear
3:53 PM 84.0 °F 8.1 °F 6% 29.74 in 10.0 mi SW 23.0 mph 29.9 mph N/A   Clear
4:53 PM 84.0 °F 15.1 °F 8% 29.74 in 10.0 mi WSW 16.1 mph 24.2 mph N/A   Clear
5:53 PM 82.0 °F 12.9 °F 7% 29.75 in 10.0 mi SW 17.3 mph 23.0 mph N/A   Clear
6:53 PM 80.1 °F 16.0 °F 9% 29.75 in 10.0 mi West 9.2 mph - N/A   Clear
7:53 PM 78.1 °F 14.0 °F 9% 29.76 in 10.0 mi SW 9.2 mph - N/A   Clear
8:53 PM 72.0 °F 21.0 °F 15% 29.78 in 10.0 mi West 4.6 mph - N/A   Clear
9:53 PM 64.0 °F 21.0 °F 19% 29.80 in 10.0 mi SE 5.8 mph - N/A   Clear
10:53 PM 61.0 °F 21.0 °F 21% 29.81 in 10.0 mi East 3.5 mph - N/A   Clear
11:53 PM 57.0 °F 30.9 °F 37% 29.81 in 10.0 mi NNE 3.5 mph - N/A   Clear